Location: Bucaritos
(10.0779°N, 67.0369°W)
Time: 17:12:51
(UTC+00:00)

Iridium 2 - Pass Details

Date: 27 June 2022
Orbit: 490 x 501 km, 85.5° (Epoch: 08 August)

Event Time Altitude Azimuth Distance (km) Brightness Sun altitude
Rises 23:42:16 0° 353° (N) 2,554 7.7 -11.9°
Reaches altitude 10° 23:44:22 10° 350° (N) 1,673 6.8 -12.4°
Maximum altitude 23:47:58 61° 270° (W) 557 4.1 -13.1°
Drops below altitude 10° 23:51:29 11° 189° (S) 1,641 6.1 -13.9°
Sets 23:53:41 0° 185° (S) 2,555 7.0 -14.4°
